Location: Göttingen
(51.5413°N, 9.9158°E)
Time: 03:19:49
(UTC+02:00)

M-CUBED/EXP-1 PRIME - Visible Passes

Search period start: 26 June 2022 00:00
Search period end: 06 July 2022 00:00
Orbit: 423 x 634 km, 101.7° (Epoch: 25 June)

Date Brightness Start Highest point End Pass type
(mag) Time Alt. Az. Time Alt. Az. Time Alt. Az.
26 Jun ? 01:31:26 16° SE 01:33:38 37° ENE 01:36:43 10° N visible
26 Jun ? 03:06:42 15° WSW 03:07:43 17° W 03:09:59 10° NW visible
27 Jun ? 01:20:14 12° ESE 01:22:42 27° ENE 01:25:34 10° N visible
27 Jun ? 02:55:29 20° SW 02:56:38 24° W 02:59:22 10° NW visible
28 Jun ? 01:09:18 10° ESE 01:11:48 21° ENE 01:14:22 10° N visible
28 Jun ? 02:44:16 24° SSW 02:45:33 33° WSW 02:48:36 10° NW visible
29 Jun ? 00:58:48 10° E 01:00:54 16° NE 01:03:03 10° NNE visible
29 Jun ? 02:33:02 27° SSW 02:34:28 48° WSW 02:37:43 10° NNW visible
30 Jun ? 00:48:31 10° ENE 00:50:01 13° NE 00:51:33 10° NNE visible
30 Jun ? 02:21:47 27° S 02:23:25 71° WSW 02:26:47 10° NNW visible
01 Jul ? 02:10:32 24° SSE 02:12:22 80° ENE 02:15:46 10° NNW visible
02 Jul ? 01:59:15 20° SE 02:01:20 55° ENE 02:04:41 10° NNW visible
02 Jul ? 03:34:30 11° WSW 03:35:38 13° W 03:37:10 10° WNW visible
03 Jul ? 01:47:58 15° SE 01:50:19 39° ENE 01:53:33 10° N visible
03 Jul ? 03:23:13 15° SW 03:24:26 17° W 03:26:47 10° NW visible
04 Jul ? 01:36:40 12° ESE 01:39:19 29° ENE 01:42:22 10° N visible
04 Jul ? 03:11:55 19° SW 03:13:15 24° W 03:16:05 10° NW visible
05 Jul ? 01:25:40 10° ESE 01:28:19 22° ENE 01:31:06 10° N visible
05 Jul ? 03:00:36 23° SSW 03:02:04 33° WSW 03:05:15 10° NW visible
